When you browse on this site, cookies collect data to enhance your experience and personalize the content and advertising you see.
Visit our Privacy Policy to learn more. By continuing to use the site, you agree to this use of cookies and data.
  • In United Kingdom
  • List of Countries
  • For 7 days
  • Water Temperature
  • Weather Map
  • Weather Widgets
  • user-avatar
    Login

    Hourly Weather Sydney

    Today, 25 August, Sunday

    Time Temperature Precipitation Wind Pressure Humidity
    00:00 +13°C° 0 mm 3 mps 760 mmHg 55%
    01:00 +12°C° 0 mm 3 mps 760 mmHg 58%
    02:00 +11°C° 0 mm 3 mps 760 mmHg 58%
    03:00 +11°C° 0 mm 3 mps 760 mmHg 57%
    04:00 +12°C° 0 mm 2 mps 760 mmHg 57%
    05:00 +12°C° 0 mm 2 mps 760 mmHg 56%
    06:00 +12°C° 0 mm 2 mps 761 mmHg 54%
    07:00 +10°C° 0 mm 2 mps 761 mmHg 53%
    08:00 +14°C° 0 mm 2 mps 761 mmHg 45%
    09:00 +17°C° 0 mm 2 mps 761 mmHg 37%
    10:00 +21°C° 0 mm 2 mps 761 mmHg 27%
    11:00 +21°C° 0 mm 3 mps 761 mmHg 33%
    12:00 +21°C° 0 mm 5 mps 761 mmHg 40%
    13:00 +21°C° 0 mm 7 mps 761 mmHg 46%
    14:00 +20°C° 0 mm 7 mps 761 mmHg 52%
    15:00 +18°C° 0 mm 7 mps 762 mmHg 57%
    16:00 +17°C° 0 mm 6 mps 762 mmHg 63%
    17:00 +16°C° 0 mm 5 mps 762 mmHg 65%
    18:00 +15°C° 0 mm 5 mps 763 mmHg 68%
    19:00 +15°C° 0 mm 4 mps 764 mmHg 70%
    20:00 +14°C° 0.1 mm 4 mps 764 mmHg 73%
    21:00 +14°C° 0.1 mm 3 mps 764 mmHg 75%
    22:00 +14°C° 0.1 mm 3 mps 765 mmHg 78%
    23:00 +13°C° 0.4 mm 3 mps 765 mmHg 80%

    Tomorrow, 26 August, Monday

    Time Temperature Precipitation Wind Pressure Humidity
    00:00 +13°C° 0.4 mm 3 mps 765 mmHg 83%
    01:00 +13°C° 0.4 mm 3 mps 765 mmHg 85%
    02:00 +13°C° 0.2 mm 3 mps 765 mmHg 85%
    03:00 +13°C° 0.2 mm 3 mps 765 mmHg 85%
    04:00 +12°C° 0.2 mm 4 mps 764 mmHg 85%
    05:00 +12°C° 0.3 mm 3 mps 765 mmHg 86%
    06:00 +12°C° 0.3 mm 3 mps 765 mmHg 87%
    07:00 +12°C° 0.3 mm 3 mps 765 mmHg 88%
    08:00 +13°C° 0.8 mm 3 mps 765 mmHg 83%
    09:00 +14°C° 0.8 mm 3 mps 765 mmHg 78%
    10:00 +15°C° 0.8 mm 4 mps 766 mmHg 73%
    11:00 +15°C° 0.9 mm 4 mps 765 mmHg 72%
    12:00 +15°C° 0.9 mm 4 mps 765 mmHg 72%
    13:00 +17°C° 0.9 mm 4 mps 764 mmHg 71%
    14:00 +15°C° 0.8 mm 5 mps 764 mmHg 74%
    15:00 +14°C° 0.8 mm 5 mps 764 mmHg 77%
    16:00 +14°C° 0.8 mm 5 mps 764 mmHg 80%
    17:00 +14°C° 0.2 mm 5 mps 765 mmHg 80%
    18:00 +13°C° 0.2 mm 5 mps 765 mmHg 80%
    19:00 +13°C° 0.2 mm 5 mps 766 mmHg 81%
    20:00 +13°C° 0.2 mm 4 mps 766 mmHg 81%
    21:00 +13°C° 0.2 mm 4 mps 766 mmHg 82%
    22:00 +13°C° 0.2 mm 3 mps 766 mmHg 82%
    23:00 +13°C° 0.5 mm 3 mps 766 mmHg 84%

    Day after tomorrow, 27 August, Tuesday

    Time Temperature Precipitation Wind Pressure Humidity
    00:00 +13°C° 0.5 mm 3 mps 766 mmHg 86%
    01:00 +12°C° 0.5 mm 3 mps 766 mmHg 88%
    02:00 +12°C° 1.6 mm 3 mps 766 mmHg 89%
    03:00 +12°C° 1.6 mm 3 mps 765 mmHg 91%
    04:00 +13°C° 1.6 mm 2 mps 765 mmHg 92%
    05:00 +12°C° 1.2 mm 3 mps 765 mmHg 91%
    06:00 +12°C° 1.2 mm 3 mps 766 mmHg 91%
    07:00 +12°C° 1.2 mm 3 mps 766 mmHg 90%
    08:00 +13°C° 1 mm 3 mps 766 mmHg 89%
    09:00 +13°C° 1 mm 3 mps 766 mmHg 87%
    10:00 +13°C° 1 mm 3 mps 766 mmHg 86%
    11:00 +13°C° 0.8 mm 4 mps 766 mmHg 86%
    12:00 +13°C° 0.8 mm 4 mps 765 mmHg 86%
    13:00 +13°C° 0.8 mm 4 mps 765 mmHg 87%
    14:00 +13°C° 0.6 mm 4 mps 764 mmHg 88%
    15:00 +13°C° 0.6 mm 4 mps 764 mmHg 89%
    16:00 +12°C° 0.6 mm 4 mps 764 mmHg 90%
    17:00 +12°C° 0.7 mm 4 mps 764 mmHg 90%
    18:00 +12°C° 0.7 mm 4 mps 765 mmHg 91%
    19:00 +12°C° 0.7 mm 3 mps 765 mmHg 91%
    20:00 +12°C° 0.6 mm 3 mps 765 mmHg 92%
    21:00 +12°C° 0.6 mm 3 mps 765 mmHg 92%
    22:00 +12°C° 0.6 mm 3 mps 765 mmHg 92%
    23:00 +11°C° 0.6 mm 3 mps 765 mmHg 93%

    28 August, Wednesday

    Time Temperature Precipitation Wind Pressure Humidity
    00:00 +12°C° 0.6 mm 2 mps 764 mmHg 93%
    01:00 +12°C° 0.6 mm 2 mps 764 mmHg 94%
    02:00 +10°C° 0.4 mm 2 mps 764 mmHg 93%
    03:00 +10°C° 0.4 mm 3 mps 763 mmHg 92%
    04:00 +10°C° 0.4 mm 3 mps 763 mmHg 92%
    05:00 +10°C° 0 mm 3 mps 763 mmHg 91%
    06:00 +10°C° 0 mm 3 mps 763 mmHg 90%
    07:00 +10°C° 0 mm 3 mps 764 mmHg 90%
    08:00 +12°C° 0 mm 3 mps 763 mmHg 80%
    09:00 +14°C° 0 mm 3 mps 763 mmHg 71%
    10:00 +17°C° 0 mm 3 mps 763 mmHg 61%
    11:00 +19°C° 0 mm 2 mps 762 mmHg 52%
    12:00 +20°C° 0 mm 2 mps 762 mmHg 43%
    13:00 +23°C° 0 mm 1 mps 761 mmHg 34%
    14:00 +22°C° 0 mm 1 mps 761 mmHg 33%
    15:00 +21°C° 0 mm 2 mps 760 mmHg 31%
    16:00 +20°C° 0 mm 2 mps 760 mmHg 30%
    17:00 +19°C° 0 mm 3 mps 760 mmHg 36%
    18:00 +17°C° 0 mm 4 mps 761 mmHg 42%
    19:00 +14°C° 0 mm 4 mps 762 mmHg 49%
    20:00 +13°C° 0 mm 5 mps 762 mmHg 51%
    21:00 +12°C° 0 mm 5 mps 762 mmHg 54%
    22:00 +10°C° 0 mm 6 mps 762 mmHg 57%
    23:00 +10°C° 0 mm 5 mps 763 mmHg 60%

    29 August, Thursday

    Time Temperature Precipitation Wind Pressure Humidity
    00:00 +9°C° 0 mm 5 mps 763 mmHg 62%
    01:00 +8°C° 0 mm 5 mps 763 mmHg 65%
    02:00 +8°C° 0 mm 5 mps 763 mmHg 66%
    03:00 +8°C° 0 mm 5 mps 762 mmHg 66%
    04:00 +8°C° 0 mm 5 mps 762 mmHg 67%
    05:00 +8°C° 0.3 mm 5 mps 763 mmHg 68%
    06:00 +9°C° 0.3 mm 6 mps 763 mmHg 69%
    07:00 +9°C° 0.3 mm 7 mps 763 mmHg 70%
    08:00 +9°C° 0.7 mm 7 mps 763 mmHg 73%
    09:00 +9°C° 0.7 mm 8 mps 764 mmHg 75%
    10:00 +8°C° 0.7 mm 9 mps 764 mmHg 77%
    11:00 +8°C° 0.6 mm 9 mps 763 mmHg 76%
    12:00 +8°C° 0.6 mm 9 mps 763 mmHg 75%
    13:00 +8°C° 0.6 mm 9 mps 763 mmHg 73%
    14:00 +10°C° 0.5 mm 9 mps 763 mmHg 73%
    15:00 +10°C° 0.5 mm 9 mps 763 mmHg 72%
    16:00 +10°C° 0.5 mm 9 mps 763 mmHg 71%
    17:00 +10°C° 0.4 mm 9 mps 763 mmHg 74%
    18:00 +8°C° 0.4 mm 9 mps 764 mmHg 77%
    19:00 +8°C° 0.4 mm 9 mps 764 mmHg 80%
    20:00 +8°C° 1 mm 9 mps 764 mmHg 81%
    21:00 +8°C° 1 mm 10 mps 764 mmHg 83%
    22:00 +8°C° 1 mm 10 mps 764 mmHg 84%
    23:00 +7°C° 3.8 mm 10 mps 764 mmHg 85%

    30 August, Friday

    Time Temperature Precipitation Wind Pressure Humidity
    00:00 +7°C° 3.8 mm 10 mps 763 mmHg 85%
    01:00 +6°C° 3.8 mm 10 mps 763 mmHg 85%
    02:00 +7°C° 2.7 mm 9 mps 762 mmHg 87%
    03:00 +8°C° 2.7 mm 7 mps 762 mmHg 88%
    04:00 +8°C° 2.7 mm 6 mps 762 mmHg 89%
    05:00 +9°C° 0.9 mm 6 mps 762 mmHg 89%
    06:00 +9°C° 0.9 mm 5 mps 762 mmHg 89%
    07:00 +9°C° 0.9 mm 5 mps 762 mmHg 89%
    08:00 +10°C° 2.5 mm 7 mps 763 mmHg 88%
    09:00 +12°C° 2.5 mm 8 mps 763 mmHg 87%
    10:00 +13°C° 2.5 mm 10 mps 763 mmHg 87%
    11:00 +13°C° 2.4 mm 11 mps 763 mmHg 83%
    12:00 +13°C° 2.4 mm 12 mps 762 mmHg 80%
    13:00 +13°C° 2.4 mm 13 mps 762 mmHg 76%
    14:00 +13°C° 0.6 mm 13 mps 762 mmHg 74%
    15:00 +13°C° 0.6 mm 13 mps 762 mmHg 73%
    16:00 +13°C° 0.6 mm 13 mps 762 mmHg 71%
    17:00 +13°C° 0.7 mm 13 mps 762 mmHg 71%
    18:00 +13°C° 0.7 mm 13 mps 763 mmHg 71%
    19:00 +12°C° 0.7 mm 13 mps 763 mmHg 71%
    20:00 +12°C° 1.3 mm 12 mps 763 mmHg 72%
    21:00 +12°C° 1.3 mm 12 mps 764 mmHg 73%
    22:00 +12°C° 1.3 mm 11 mps 764 mmHg 74%
    23:00 +12°C° 2.4 mm 11 mps 764 mmHg 77%
    Show more